Dubai, UAE

11:32 AM +04 on January 21, 2018 (GMT +0400)
Dubai

Weather History for 41194 - March, 2013

Change the Weather History Date:

Monday, March 25, 2013

  Actual Average Record
Temperature  
Mean Temperature 75 °F -  
Max Temperature 81 °F 88 °F - ()
Min Temperature 69 °F 69 °F - ()
Cooling Degree Days 10    
Growing Degree Days 25 (Base 50)    
Moisture  
Dew Point 63 °F    
Average Humidity 66    
Maximum Humidity 88    
Minimum Humidity 35    
Precipitation  
Precipitation 0.00 in 0.01 in - ()
Sea Level Pressure  
Sea Level Pressure 29.93 in    
Wind  
Wind Speed 7 mph ()    
Max Wind Speed 20 mph    
Max Gust Speed 29 mph    
Visibility 5.9 miles    
Events Rain    
T = Trace of Precipitation, MM = Missing Value Source: Averaged Metar Reports

Daily Weather History Graph

Daily Weather History Graph

Search for Another Location

Airport or City:

Trip Planner

Search our weather history database for the weather conditions in past years. The results will help you decide how hot, cold, wet, or windy it might be!

Date:

Astronomy

Mar. 25, 2013 Rise Set
Actual Time 6:17 AM +04 6:32 PM +04
Civil Twilight 5:54 AM +04 6:54 PM +04
Nautical Twilight 5:27 AM +04 7:21 PM +04
Astronomical Twilight 5:01 AM +04 7:48 PM +04
Moon 4:45 PM +04 (3/25) 4:36 AM +04 (3/25)
Length of Visible Light 13h 00m
Length of Day
12h 14m
Waxing Gibbous, 95% of the Moon is Illuminated
Mar 25
Waxing Gibbous
Mar 27
Full
Apr 3
Last Quarter
Apr 10
New
Apr 18
First Quarter

Hourly Weather History & Observations

Time (+04) Temp. Heat Index Dew Point Humidity Pressure Visibility Wind Dir Wind Speed Gust Speed Precip Events Conditions
12:00 AM 75.2 °F - 66.2 °F 73% 29.92 in - NE 5.8 mph - N/A   Clear
1:00 AM 74 °F - 67 °F 71% 29.92 in 6 mi ENE 3.5 mph - -  
1:00 AM 75.2 °F - 66.2 °F 73% 29.92 in - ENE 3.5 mph - N/A   Clear
2:00 AM 75.2 °F - 66.2 °F 73% 29.89 in - Variable 3.5 mph - N/A   Clear
3:00 AM 75.2 °F - 66.2 °F 73% 29.89 in - ENE 4.6 mph - N/A   Clear
4:00 AM 73 °F - 65 °F 70% 29.89 in 6 mi East 5.8 mph - -  
4:00 AM 73.4 °F - 64.4 °F 73% 29.89 in - East 5.8 mph - N/A   Clear
5:00 AM 71.6 °F - 66.2 °F 83% 29.86 in - East 6.9 mph - N/A   Clear
6:00 AM 69.8 °F - 66.2 °F 88% 29.89 in - East 5.8 mph - N/A   Clear
7:00 AM 71 °F - 65 °F 78% 29.94 in 5 mi SW 4.6 mph - -   Haze
7:00 AM 71.6 °F - 66.2 °F 83% 29.92 in 5.0 mi SW 4.6 mph - N/A   Unknown
8:00 AM 75.2 °F - 64.4 °F 69% 29.95 in - NNW 3.5 mph - N/A   Clear
9:00 AM 78.8 °F - 60.8 °F 54% 29.98 in - NNW 9.2 mph - N/A   Clear
10:00 AM 80 °F - 57 °F 35% 29.98 in 6 mi NNW 8.1 mph - -   Mostly Cloudy
10:00 AM 80.6 °F 80.8 °F 57.2 °F 45% 29.98 in - NNW 8.1 mph - N/A   Clear
11:00 AM 80.6 °F 80.8 °F 57.2 °F 45% 29.98 in - WNW 11.5 mph - N/A   Clear
12:00 PM 78.8 °F - 66.2 °F 65% 29.98 in - West 15.0 mph - N/A   Clear
1:00 PM 78 °F - 66 °F 58% 29.97 in 6 mi West 15.0 mph - -   Scattered Clouds
1:00 PM 78.8 °F - 66.2 °F 65% 29.95 in 6.2 mi West 15.0 mph - N/A   Partly Cloudy
2:00 PM 78.8 °F - 64.4 °F 61% 29.92 in 6.2 mi WNW 13.8 mph - N/A   Scattered Clouds
3:00 PM 77.0 °F - 66.2 °F 69% 29.92 in 6.2 mi West 16.1 mph - N/A   Mostly Cloudy
4:00 PM 75 °F - 67 °F 69% 29.94 in 5 mi NW 12.7 mph - - Rain Light Rain
4:00 PM 75.2 °F - 66.2 °F 73% 29.92 in 5.0 mi NW 12.7 mph - N/A Rain Light Rain
5:00 PM 75.2 °F - 62.6 °F 65% 29.95 in 6.2 mi West 15.0 mph - N/A   Partly Cloudy
6:00 PM 73.4 °F - 59.0 °F 61% 29.95 in 6.2 mi West 19.6 mph - N/A   Partly Cloudy
6:31 PM 71.6 °F - 59.0 °F 64% 29.92 in 6.2 mi West 17.3 mph 28.8 mph N/A Rain Light Rain
7:00 PM 71 °F - 60 °F 60% 29.94 in 6 mi West 16.1 mph - - Rain Light Rain
7:00 PM 71.6 °F - 60.8 °F 69% 29.92 in 6.2 mi West 16.1 mph - N/A Rain Light Rain
8:00 PM 73.4 °F - 57.2 °F 57% 29.92 in 6.2 mi Variable 2.3 mph - N/A Rain Light Rain
9:00 PM 73.4 °F - 59.0 °F 61% 29.92 in 6.2 mi ENE 3.5 mph - N/A Rain Light Rain
10:00 PM 72 °F - 59 °F 55% 29.94 in 6 mi SE 4.6 mph - - Rain Light Rain
10:00 PM 71.6 °F - 59.0 °F 64% 29.92 in - SE 4.6 mph - N/A   Clear
11:00 PM 71.6 °F - 59.0 °F 64% 29.92 in - South 4.6 mph - N/A   Clear